Location: Devargunta
(16.7631°N, 80.9077°E)
Time: 13:22:40
(UTC+00:00)

Cosmos 540 Rocket - Visible Passes

Search period start: 16 May 2021 00:00
Search period end: 26 May 2021 00:00
Orbit: 741 x 753 km, 74.1° (Epoch: 15 May)

Date Brightness Start Highest point End Pass type
(mag) Time Alt. Az. Time Alt. Az. Time Alt. Az.
16 May 6.2 14:08:37 10° WNW 14:11:22 15° W 14:14:07 10° SW visible
17 May 5.2 13:23:33 10° NW 13:28:09 35° W 13:32:46 10° SSW visible
19 May 6.4 13:40:31 10° WNW 13:42:39 13° W 13:44:47 10° WSW visible
23 May 6.0 23:24:04 10° SSE 23:27:52 21° E 23:31:39 10° NE visible
